www.pogodaiklimat.ru

Погода и климат >> Архив погоды >> Австрия >> Ноймаркт


ПОГОДА в Ноймаркте

  • Прогноз погоды в Ноймаркте
  • Монитор погоды в Ноймаркте

АРХИВ ПОГОДЫ в Ноймаркте

Время (UTC), дата Ветер
(напр.,м/с)
 
Видим.   Явления Облачность Т
(С)
Тd
(С)
f
(%)
Тe
(С)
Тes
(С)
Комфортность P
(гПа)
Po
(гПа)
Тmin
(С)
Tmax
(С)
R
(мм)
R24
(мм)
S
(см)
10 14.08 С 6 н/о н/о +16.4 +6.2 51 +15 +15 1016.9 918.8
11 14.08 СЗ 3 н/о н/о +17.0 +5.6 47 +17 +17 1016.9 919.0
12 14.08 СВ 5 н/о н/о +17.0 +5.9 48 +16 +16 1017.1 919.2
13 14.08 С 5 н/о н/о +17.1 +5.9 48 +16 +16 1016.8 919.0
14 14.08 С 5 н/о н/о +17.4 +6.4 48 +17 +17 1016.5 918.8
15 14.08 С 3 н/о н/о +18.8 +6.1 43 +19 +19 1015.9 918.7
16 14.08 СЗ 4 н/о н/о +18.3 +4.3 40 +18 +18 1016.0 918.6
17 14.08 С 3 н/о н/о +17.7 +2.8 37 +18 +18 1016.3 918.6
18 14.08 СЗ 3 н/о н/о +15.5 +4.4 48 +15 +15 1017.4 919.0 +11.1 +19.1 0.0
19 14.08 СЗ 2 н/о н/о +12.8 +4.6 57 +12 +12 1019.2 919.7
20 14.08 СЗ 1 н/о н/о +11.1 +5.0 66 +11 +11 1020.5 920.3
21 14.08 З 1 н/о н/о +9.3 +5.1 75 +9 +9 1021.3 920.5
22 14.08 СЗ 1 н/о н/о +8.2 +4.6 78 +8 +8 1022.1 920.8
23 14.08 СВ 1 н/о н/о +7.4 +4.6 82 +7 +7 1022.5 920.9
00 15.08 С 1 н/о н/о +6.4 +4.0 85 +5 +5 1022.8 920.8
01 15.08 штиль 0 н/о н/о +5.8 +3.7 86 +5 +5 1023.0 920.8
02 15.08 СЗ 1 н/о н/о +5.2 +3.5 89 +4 +4 1022.8 920.4
03 15.08 З 1 н/о н/о +4.6 +3.1 90 +3 +3 1022.9 920.3
04 15.08 штиль 0 н/о н/о +4.2 +2.7 90 +3 +3 1023.1 920.3
05 15.08 штиль 0 н/о н/о +4.2 +2.9 91 +3 +3 1023.2 920.4
06 15.08 штиль 0 н/о н/о +7.6 +4.9 83 +7 +7 1021.5 920.1 +4.0 +16.0
07 15.08 З 1 н/о н/о +10.1 +6.0 76 +10 +10 1020.0 919.6
08 15.08 н/о н/о +13.5 +6.2 61 1018.1 919.0
09 15.08 ЮВ 2 н/о н/о +17.0 +6.5 50 +17 +17 1016.5 918.7
10 15.08 Ю 5 н/о н/о +17.8 +6.4 47 +17 +17 1015.4 917.9
11 15.08 Ю 4 н/о н/о +19.3 +6.4 43 +20 +20 1014.5 917.6
12 15.08 Ю 4 н/о н/о +20.1 +7.7 45 +21 +21 комфорт 1013.4 916.9
13 15.08 Ю 4 н/о н/о +20.5 +7.2 42 +22 +22 комфорт 1012.9 916.5
14 15.08 Ю 4 н/о н/о +21.1 +8.7 45 +22 +22 комфорт 1012.3 916.2
15 15.08 Ю 4 н/о н/о +21.5 +9.1 45 +23 +23 комфорт 1011.8 915.9
16 15.08 ЮВ 1 н/о в посл. час осадки н/о +19.4 +10.3 56 +22 +22 комфорт 1012.6 916.0 0.1
17 15.08 ЮЗ 1 н/о н/о +19.5 +10.1 55 +22 +22 комфорт 1012.6 916.0
18 15.08 штиль 0 н/о {осадки} н/о +17.5 +10.6 64 +18 +18 1013.8 916.5 +7.5 +21.6 0.1
19 15.08 СЗ 1 н/о н/о +16.4 +10.8 69 +17 +17 1015.2 917.4
20 15.08 З 1 н/о н/о +15.3 +10.8 75 +16 +16 1016.1 917.9 0.0
21 15.08 В 1 н/о н/о +15.0 +10.6 75 +16 +16 1016.9 918.5 0.0
22 15.08 В 2 н/о н/о +14.0 +11.1 83 +13 +13 1017.7 918.9 0.0
23 15.08 Ю 2 н/о н/о +13.0 +11.3 89 +12 +12 1018.1 919.0 0.0
00 16.08 Ю 1 н/о н/о +12.3 +11.1 92 +12 +12 1018.6 919.2 0.0
01 16.08 Ю 2 н/о н/о +11.8 +10.8 94 +11 +11 1018.6 919.0
02 16.08 Ю 1 н/о н/о +11.8 +10.7 93 +12 +12 1018.7 919.1
03 16.08 ЮЗ 1 н/о н/о +11.1 +10.2 94 +11 +11 1018.9 919.0
04 16.08 СЗ 1 н/о н/о +11.4 +10.3 93 +11 +11 1019.0 919.2
05 16.08 ЮЗ 2 н/о н/о +11.3 +10.2 93 +10 +10 1019.3 919.5
06 16.08 ЮВ 1 н/о н/о +12.0 +10.4 90 +12 +12 1019.5 919.9 +11.0 +17.7 0.0
07 16.08 штиль 0 н/о н/о +13.2 +10.2 82 +13 +13 1019.1 919.9
08 16.08 н/о н/о +14.7 +10.0 73 1018.7 920.0
09 16.08 ЮЗ 1 н/о н/о +18.3 +7.8 50 +20 +20 1017.2 919.8
10 16.08 СЗ 2 н/о н/о +18.3 +6.9 47 +19 +19 1017.2 919.7
11 16.08 З 3 н/о н/о +19.1 +5.8 42 +20 +20 1016.9 919.7
12 16.08 З 2 н/о н/о +19.7 +6.4 42 +21 +21 комфорт 1015.9 919.0
13 16.08 СЗ 3 н/о н/о +20.0 +5.8 39 +21 +21 комфорт 1015.7 918.9
14 16.08 З 3 н/о н/о +20.9 +5.9 38 +22 +22 комфорт 1015.0 918.5
15 16.08 Ю 5 н/о н/о +19.1 +7.9 48 +19 +19 1015.2 918.2
16 16.08 Ю 4 н/о н/о +19.7 +8.1 47 +21 +21 комфорт 1015.0 918.2
17 16.08 Ю 3 н/о н/о +19.4 +9.8 54 +21 +21 комфорт 1015.3 918.4
18 16.08 Ю 2 н/о н/о +17.0 +9.6 62 +17 +17 1016.7 918.9 +11.8 +21.2
19 16.08 Ю 2 н/о н/о +15.5 +9.3 67 +15 +15 1018.1 919.7
20 16.08 З 1 н/о н/о +13.0 +9.2 78 +13 +13 1019.4 920.1
21 16.08 штиль 0 н/о н/о +11.5 +8.3 81 +11 +11 1020.2 920.3
22 16.08 З 1 н/о н/о +11.0 +8.3 83 +11 +11 1020.5 920.4
23 16.08 СЗ 2 н/о н/о +10.1 +7.9 86 +9 +9 1020.7 920.3
00 17.08 СЗ 1 н/о н/о +9.2 +7.3 88 +9 +9 1021.1 920.3
01 17.08 С 1 н/о н/о +8.3 +6.7 90 +7 +7 1021.3 920.2
02 17.08 З 1 н/о н/о +8.7 +7.1 90 +8 +8 1020.6 919.7
03 17.08 СЗ 1 н/о н/о +8.0 +6.6 91 +7 +7 1020.7 919.5
04 17.08 штиль 0 н/о н/о +7.8 +6.3 90 +7 +7 1021.0 919.7
05 17.08 СЗ 2 н/о н/о +8.2 +6.6 90 +6 +6 1021.0 919.9
06 17.08 штиль 0 н/о н/о +9.0 +7.4 90 +8 +8 1020.9 920.1 +7.5 +17.5
07 17.08 В 1 н/о н/о +11.1 +8.2 82 +11 +11 1019.6 919.6
08 17.08 штиль 0 н/о н/о +13.5 +9.4 76 +13 +13 1018.6 919.5
09 17.08 В 1 н/о н/о +16.4 +9.0 62 +17 +17 1017.5 919.5
10 17.08 Ю 1 н/о н/о +19.5 +10.3 55 +22 +22 комфорт 1016.0 919.1
11 17.08 ЮВ 2 н/о н/о +21.0 +10.9 52 +24 +24 комфорт 1014.8 918.5
12 17.08 Ю 3 н/о н/о +23.2 +10.5 45 +25 +25 комфорт 1013.4 917.9
13 17.08 Ю 5 н/о н/о +23.9 +10.0 41 +25 +25 комфорт 1012.6 917.4
14 17.08 Ю 6 н/о н/о +24.8 +7.6 33 +25 +25 комфорт 1012.4 917.4
15 17.08 Ю 6 н/о н/о +23.7 +10.3 43 +25 +25 комфорт 1012.3 917.1
16 17.08 Ю 4 н/о н/о +23.7 +12.1 48 +25 +25 комфорт 1012.3 917.1
17 17.08 Ю 2 н/о н/о +22.3 +10.5 47 +24 +24 комфорт 1012.8 917.1
18 17.08 ЮВ 2 н/о н/о +20.8 +10.7 52 +23 +23 комфорт 1013.6 917.4 +8.6 +24.8
19 17.08 ЮВ 1 н/о н/о +18.8 +11.9 64 +21 +21 комфорт 1014.7 917.8
20 17.08 штиль 0 н/о н/о +17.1 +11.8 71 +17 +17 1015.5 918.0
21 17.08 СВ 1 н/о н/о +16.6 +11.8 73 +17 +17 1015.5 917.8
22 17.08 В 1 н/о н/о +15.5 +12.1 80 +16 +16 1015.9 917.8
23 17.08 СЗ 1 н/о н/о +14.3 +11.7 84 +15 +15 1016.6 918.1
00 18.08 В 1 н/о н/о +13.7 +11.2 85 +14 +14 1016.8 918.0
01 18.08 З 1 н/о н/о +14.2 +11.5 84 +15 +15 1016.8 918.2
02 18.08 С 1 н/о н/о +14.0 +11.5 85 +14 +14 1016.7 918.0
03 18.08 штиль 0 н/о н/о +13.4 +11.5 88 +13 +13 1016.6 917.8
04 18.08 СЗ 2 н/о н/о +13.6 +11.7 88 +13 +13 1016.8 918.0
05 18.08 штиль 0 н/о н/о +13.0 +11.4 90 +12 +12 1016.9 917.9
06 18.08 З 1 н/о н/о +14.1 +12.2 88 +14 +14 1016.8 918.2 +13.0 +21.1
07 18.08 СВ 1 н/о н/о +16.1 +12.3 78 +17 +17 1016.0 918.1
08 18.08 штиль 0 н/о н/о +18.6 +13.2 71 +19 +19 1015.0 918.0
09 18.08 ЮЗ 1 н/о н/о +21.6 +13.4 60 +24 +24 комфорт 1013.6 917.7
10 18.08 ЮВ 1 н/о н/о +23.9 +12.3 48 +26 +26 жарко 1012.7 917.5
11 18.08 Ю 4 н/о н/о +26.1 +12.7 43 +28 +28 жарко 1011.5 917.1
12 18.08 ЮЗ 7 н/о н/о +27.4 +9.7 33 +28 +28 жарко 1010.8 916.8
13 18.08 Ю 3 н/о н/о +28.6 +8.3 28 +28 +28 жарко 1010.2 916.6
14 18.08 Ю 7 н/о н/о +28.2 +11.5 35 +29 +29 жарко 1010.2 916.5
15 18.08 Ю 6 н/о н/о +28.3 +10.3 33 +29 +29 жарко 1010.1 916.4
16 18.08 Ю 6 н/о н/о +27.4 +11.7 38 +29 +29 жарко 1010.3 916.4
17 18.08 Ю 6 н/о н/о +26.4 +12.3 42 +28 +28 жарко 1010.5 916.3
18 18.08 Ю 2 н/о н/о +24.1 +13.6 52 +26 +26 жарко 1011.1 916.2 +14.1 +29.2
19 18.08 ЮВ 2 н/о н/о +22.3 +14.1 60 +26 +26 жарко 1012.1 916.6
20 18.08 Ю 3 н/о н/о +20.4 +14.3 68 +23 +23 комфорт 1013.3 917.1
21 18.08 Ю 3 н/о н/о +19.2 +14.1 72 +21 +21 комфорт 1014.1 917.4
22 18.08 Ю 1 н/о н/о +17.9 +13.9 77 +19 +19 1014.6 917.5
23 18.08 ЮВ 1 н/о н/о +16.8 +13.5 81 +18 +18 1015.0 917.5
00 19.08 СЗ 1 н/о н/о +15.1 +12.8 86 +16 +16 1015.8 917.6
01 19.08 штиль 0 н/о н/о +13.8 +12.1 89 +13 +13 1016.1 917.5
02 19.08 штиль 0 н/о н/о +13.3 +11.7 90 +13 +13 1016.8 917.9
03 19.08 СЗ 2 н/о н/о +12.7 +11.3 91 +12 +12 1017.3 918.2
04 19.08 штиль 0 н/о н/о +12.1 +10.7 91 +11 +11 1017.9 918.5
05 19.08 СЗ 1 н/о н/о +12.5 +10.9 90 +12 +12 1018.0 918.7
06 19.08 В 1 н/о н/о +15.1 +11.9 81 +16 +16 1017.2 918.9 +11.7 +24.4
07 19.08 С 1 н/о н/о +18.8 +13.5 71 +21 +21 комфорт 1016.0 919.0
08 19.08 З 5 н/о н/о +21.9 +13.1 57 +25 +25 комфорт 1014.8 918.9
09 19.08 СЗ 5 н/о н/о +23.7 +12.9 51 +26 +26 жарко 1014.9 919.5
10 19.08 З 4 н/о н/о +24.0 +12.2 48 +26 +26 жарко 1014.8 919.5
11 19.08 З 3 н/о н/о +25.5 +12.2 44 +27 +27 жарко 1014.0 919.2
12 19.08 СЗ 2 н/о н/о +26.7 +12.6 42 +28 +28 жарко 1013.5 919.1
13 19.08 Ю 2 н/о н/о +25.3 +12.1 44 +27 +27 жарко 1014.1 919.2
14 19.08 СВ 2 н/о н/о +26.4 +14.3 47 +29 +29 жарко 1013.1 918.7
15 19.08 Ю 6 н/о н/о +26.8 +13.9 45 +29 +29 жарко 1012.8 918.6
16 19.08 СЗ 5 н/о н/о +21.5 +14.1 63 +24 +24 комфорт 1014.8 918.8 0.0
17 19.08 С 3 н/о н/о +16.8 +15.6 93 +17 +17 1018.3 920.5 12
18 19.08 З 2 н/о в посл. час осадки {ливн. осадки} н/о +16.9 +15.7 93 +17 +17 1018.7 920.9 +14.3 +27.6 17
19 19.08 З 3 н/о н/о +16.3 +15.5 95 +16 +16 1019.4 921.4
20 19.08 СЗ 2 н/о н/о +15.9 +14.8 93 +16 +16 1020.1 921.8
21 19.08 З 2 н/о н/о +15.8 +14.7 93 +16 +16 1020.4 922.1
22 19.08 З 2 н/о н/о +15.7 +14.7 94 +16 +16 1020.6 922.2
23 19.08 СЗ 1 н/о н/о +15.6 +14.4 93 +16 +16 1020.6 922.2
00 20.08 СЗ 1 н/о н/о +15.7 +14.4 92 +16 +16 1020.5 922.1
01 20.08 З 3 н/о н/о +15.5 +14.0 91 +15 +15 1020.6 922.1
02 20.08 СЗ 1 н/о н/о +15.4 +14.0 91 +16 +16 1020.5 922.0
03 20.08 СЗ 2 н/о н/о +15.1 +13.7 91 +15 +15 1020.7 922.1
04 20.08 СЗ 2 н/о н/о +15.1 +13.6 91 +15 +15 1020.9 922.3
05 20.08 З 2 н/о н/о +15.1 +13.7 91 +15 +15 1021.2 922.5
06 20.08 З 2 н/о н/о +15.7 +13.8 88 +16 +16 1020.9 922.5 +15.1 +17.0
07 20.08 З 2 н/о н/о +16.3 +13.8 85 +16 +16 1020.7 922.5
08 20.08 З 1 н/о н/о +17.3 +14.2 82 +18 +18 1020.6 922.7
09 20.08 З 1 н/о н/о +20.4 +16.0 76 +24 +24 комфорт 1019.4 922.7 0.0
10 20.08 Ю 1 н/о н/о +21.5 +16.5 73 +25 +25 комфорт 1019.0 922.7
11 20.08 Ю 2 н/о н/о +22.3 +15.5 65 +26 +26 жарко 1018.4 922.3
12 20.08 Ю 2 н/о н/о +23.0 +15.0 61 +27 +27 душно 1017.8 922.0 0.0
13 20.08 Ю 3 н/о н/о +24.4 +15.6 58 +27 +27 жарко 1016.9 921.6
14 20.08 Ю 3 н/о н/о +24.4 +15.1 56 +27 +27 жарко 1016.5 921.2
15 20.08 ЮВ 2 н/о н/о +24.4 +15.0 56 +27 +27 жарко 1016.2 921.0
16 20.08 Ю 3 н/о н/о +23.5 +15.1 59 +26 +26 жарко 1016.3 920.8
17 20.08 Ю 3 н/о н/о +22.4 +15.7 66 +26 +26 жарко 1016.7 920.8 0.0
18 20.08 З 1 н/о н/о +20.0 +16.2 79 +24 +24 комфорт 1017.5 920.8 +15.5 +25.1 0.0
19 20.08 штиль 0 н/о н/о +18.7 +15.8 83 +20 +20 1018.5 921.3
20 20.08 СЗ 1 н/о н/о +17.4 +15.2 87 +18 +18 1019.3 921.6
21 20.08 В 1 н/о н/о +16.6 +14.9 90 +17 +17 1019.6 921.6
22 20.08 СВ 1 н/о н/о +15.7 +14.3 91 +16 +16 1019.9 921.6
23 20.08 СЗ 1 н/о н/о +15.4 +14.2 93 +16 +16 1020.4 921.9
00 21.08 С 1 н/о н/о +14.8 +13.5 92 +15 +15 1020.6 921.9
01 21.08 С 1 н/о н/о +14.9 +13.6 92 +15 +15 1021.0 922.3
02 21.08 СЗ 4 н/о н/о +17.3 +12.4 73 +17 +17 1020.9 922.9
03 21.08 СЗ 4 н/о н/о +17.0 +10.2 64 +17 +17 1021.7 923.5
04 21.08 СЗ 5 н/о н/о +16.9 +9.3 61 +16 +16 1022.5 924.1
05 21.08 СЗ 3 н/о н/о +16.5 +9.2 62 +16 +16 1023.3 924.7
06 21.08 С 4 н/о н/о +16.8 +8.9 60 +16 +16 1023.9 925.4 +14.6 +20.6
07 21.08 С 4 н/о н/о +16.8 +8.9 60 +16 +16 1024.2 925.6
08 21.08 С 3 н/о н/о +17.0 +9.0 59 +17 +17 1024.3 925.8

 

Местоположение метеостанции Ноймаркт (Австрия): широта 47.07 долгота 14.42 высота над уровнем моря 870 м.

В архиве по умолчанию представлена погода в Ноймаркте за последнюю неделю. Архивные данные за месяц целиком и за предыдущие месяцы, начиная с января 2011 года, Вы можете получить, выбрав интересующий диапазон дат из раскрывающегося списка и нажав кнопку "Ввод!".


*Определитесь, кто Вы:
робот инопланетянин человек

Внимание! Время в таблицах - всемирное. Для получения местного времени необходимо прибавить поправку, которая равна 1 ч.

Смотрите также архив погоды в соседних городах и на ближайших метеорологических станциях:

Погода в Мурау (Австрия) (19 км)
Погода в Цельтвеге (Австрия) (29 км)
Погода в Цельтвеге (Австрия) (29 км)
Погода в Вайтенсфельд-им-Гурктале (Австрия) (30 км)
Погода в Прайтенеге (Австрия) (41 км)
Погода в Санкт-Андре (Австрия) (46 км)
Погода в Фельдкирхене (Австрия) (46 км)
Погода в Кальванге (Австрия) (47 км)
Погода в Клагенфурте (Австрия) (47 км)
Погода в Клагенфурте (Австрия) (50 км)

Пояснения к столбцам:

Ветер - указаны скорость ветра в м/с - средняя за 10 мин, порывы в срок и между сроками (в фигурных скобках) и направление, откуда дует ветер: С - северный, СВ - северо-восточный, В - восточный, ЮВ - юго-восточный, Ю - южный, ЮЗ - юго-западный, З - западный, СЗ - северо-западный.
Видимость - горизонтальная дальность видимости в метрах или километрах. При видимости от 1 до 10 км при отсутствии осадков обычно наблюдается дымка, при ухудшении видимости до 1 км и менее - туман. В сухую погоду видимость может ухудшаться дымом, пылью или мглою.
Явления - указаны атмосферные явления, наблюдавшиеся в срок или в последний час перед сроком; фигурными скобками обозначены явления, наблюдавшиеся между сроками (за 1-3 часа до срока); квадратными скобками обозначены град или гололедные отложения с указанием их диаметра в мм.
Облачность - указаны через наклонную черту общая и нижняя облачность в баллах и высота нижней границы облаков в метрах; квадратными скобками обозначены формы облаков: Ci - перистые, Cs - перисто-слоистые, Cc - перисто-кучевые, Ac - высококучевые, As - высокослоистые, Sc - слоисто-кучевые, Ns - слоисто-дождевые, Cu - кучевые, Cb - кучево-дождевые. Подробнее классификацию облаков см. в Атласе облаков (PDF).
T - Температура воздуха - температура, измеренная на высоте 2 м над землей.
Td - Температура точки росы - температура, при понижении до которой содержащийся в воздухе водяной пар достигнет насыщения.
f - Относительная влажность воздуха - влажноcть воздуха, измеренная на высоте 2 м над землей.
Te - Эффективная температура - температура, которую ощущает одетый по сезону человек в тени. Характеристика душности погоды. При расчете учитывается влияние влажности воздуха и скорости ветра на теплоощущения человека.
Tes - Эффективная температура на солнце - температура, которую ощущает человек, с поправкой на солнечный нагрев. Характеристика знойности погоды. Зависит от высоты солнца над горизонтом, облачности и скорости ветра. Ночью, в пасмурную погоду, а также при ветре 12 м/с и более поправка равна нулю.
P - Атмосферное давление - приведенное к уровню моря атмосферное давление.
Po - Атмосферное давление - измеренное на уровне метеостанции атмосферное давление.
Tmin - Минимальная температура - минимум температуры воздуха на высоте 2 м над землей.
Tmax - Максимальная температура - максимум температуры воздуха на высоте 2 м над землей.
R - Количество осадков - Количество выпавших осадков за период времени, мм. При наведении курсора мыши на число - период времени, за который выпало указанное количество осадков.
R24 - Количество осадков - Количество выпавших осадков за 24 часа, мм.
S - Снежный покров - Высота снежного покрова, см. При наведении курсора мыши на число - состояние снежного покрова и степень покрытия местности в баллах.